Погода в Меджидии

Румыния     44°15′24″N   28°16′06″E
темп.,
°C
ветер,
м/с
пор.,
м/с
влажн.,
%
обл.,
%
осадки,
мм/ч
давл.,
гПа
погр.,
м
19 апреля, пн
пн1900:00+8ссв2276100 0.0 101873
03:00+7ссз227647 0.0 101767
06:00+5с118570 0.0 101610
09:00+9сз23715 0.0 1016427
12:00+13с325754 0.0 10151205
15:00+13в435895 0.0 1013821
18:00+12вюв5562100 0.0 1012521
21:00+9вюв3578100 0.0 1012242
20 апреля, вт
вт2000:00+9вюв1280100 0.0 1010144
03:00+8зсз1282100 0.0 100987
06:00+8з3488100 0.8 1009217
09:00+8з4590100 1.6 1010228
12:00+13сз3464100 0.6 10111339
15:00+15ссз445464 1.4 10111489
18:00+13сз3563100 0.8 1011375
21:00+10з4985100 1.4 1014218
21 апреля, ср
ср2100:00+9зюз3887100 0.0 1014194
03:00+8зюз41187100 0.0 1014248
06:00+7зюз51186100 0.0 1015325
09:00+10з79705 0.0 1016564
12:00+15з675568 0.0 10161354
15:00+16з575168 0.3 10161767
18:00+15з575999 0.7 1016967
21:00+11юз357727 1.4 101759
22 апреля, чт
чт2200:00+9зюз35756 0.1 101876
03:00+9зюз347420 0.1 101855
06:00+8зюз467725 0.0 101999
09:00+13з47645 0.0 1020354
12:00+18зюз56461 0.0 10201825
15:00+20зюз553681 0.0 10192586
18:00+19зюз45415 0.0 10182003
21:00+12ю487614 0.0 1019124
23 апреля, пт
пт2300:00+11ю410774 0.0 1019176
03:00+10ю48725 0.0 1018130
06:00+10ю46805 0.0 1018102
09:00+15ю5965100 0.0 1017415
12:00+19ю7745100 0.0 10171281
15:00+20ю6743100 0.0 10161502
18:00+19ююв5754100 0.0 1015694
21:00+13ю5973100 0.6 1016177